Tracking 30743 objects as of 20-Jun-2025
HD Live streaming from Space Station
objects crossing your sky now

STARLINK-32494

Track STARLINK-32494 now!
10-day predictions
STARLINK-32494 is classified as:


NORAD ID: 62053
Int'l Code: 2024-216X
Perigee: 489.3 km
Apogee: 491.1 km
Inclination: 43.0 °
Period: 94.3 minutes
Semi major axis: 6861 km
RCS: Unknown
Launch date: November 21, 2024
Source: United States (US)
Launch site: AIR FORCE EASTERN TEST RANGE (AFETR)
Your satellite tracking list
Your tracking list is empty




NASA's NSSDC Master Catalog

Two Line Element Set (TLE):
1 62053U 24216X   25170.70273664  .00021858  00000-0  80151-3 0  9993
2 62053  43.0009 308.5893 0001298 278.4044  81.6661 15.27578859 33572
Source of the keplerian elements: AFSPC